CST,Max TemperatureF,Mean TemperatureF,Min TemperatureF,Max Dew PointF,MeanDew PointF,Min DewpointF,Max Humidity, Mean Humidity, Min Humidity, Max Sea Level PressureIn, Mean Sea Level PressureIn, Min Sea Level PressureIn, Max VisibilityMiles, Mean VisibilityMiles, Min VisibilityMiles, Max Wind SpeedMPH, Mean Wind SpeedMPH, Max Gust SpeedMPH,PrecipitationIn, CloudCover, Events, WindDirDegrees
2013-1-1,23,15,6,19,13,3,92,80,68,30.26,30.19,30.11,10,9,5,17,9,22,0.00,4,,332
2013-1-2,22,12,2,13,7,-1,95,81,67,30.30,30.25,30.22,10,10,8,15,7,17,0.00,0,,210
2013-1-3,32,23,14,28,20,10,92,85,78,30.38,30.28,30.19,10,8,5,17,10,21,0.00,6,,252
2013-1-4,32,21,9,25,16,6,92,82,72,30.39,30.35,30.32,10,10,8,20,12,25,0.00,0,,232
2013-1-5,34,26,17,32,26,14,96,86,75,30.32,30.21,30.07,10,7,1,16,9,,0.00,5,Snow,205
2013-1-6,35,26,16,31,22,14,100,86,72,30.40,30.21,30.00,10,8,5,30,14,35,0.00,4,,265
2013-1-7,37,26,15,27,22,13,92,82,64,30.42,30.32,30.19,10,7,3,21,10,29,0.00,0,,184
2013-1-8,44,34,25,32,27,22,92,79,62,30.23,30.19,30.14,10,7,4,15,10,,0.00,1,,176
2013-1-9,50,39,27,37,32,24,92,72,52,30.54,30.36,30.14,10,10,10,18,9,21,0.00,1,,270
2013-1-10,48,38,28,48,36,23,100,90,65,30.51,30.17,29.86,10,4,0,17,12,,0.17,6,Fog-Rain,103
2013-1-11,57,53,48,55,50,45,100,89,77,29.88,29.81,29.74,10,8,2,23,17,31,0.19,4,Rain,183
2013-1-12,58,45,32,52,40,30,96,84,72,29.96,29.88,29.82,10,8,2,30,13,37,0.79,4,Rain,320
2013-1-13,32,28,23,30,21,11,100,91,81,30.34,30.07,29.83,10,8,2,25,15,31,0.01,7,Rain-Snow,312
2013-1-14,25,20,14,17,13,10,88,80,71,30.50,30.44,30.30,10,10,10,13,6,15,0.00,2,,335
2013-1-15,30,22,14,21,17,11,88,79,69,30.46,30.34,30.16,10,10,8,17,7,21,0.00,2,,44
2013-1-16,36,27,17,28,23,16,100,80,59,30.14,30.07,29.99,10,8,2,22,10,26,0.00,4,,251
2013-1-17,36,28,19,29,23,17,92,72,52,30.48,30.30,30.12,10,10,7,23,10,26,0.00,2,,316
2013-1-18,41,30,18,29,23,15,92,73,54,30.49,30.32,30.11,10,10,10,29,17,36,0.00,0,,190
2013-1-19,53,44,34,37,32,28,85,68,50,30.10,29.98,29.87,10,10,10,29,17,37,0.00,0,,220
2013-1-20,38,28,18,29,13,8,77,66,54,30.35,30.27,30.07,10,10,5,35,14,40,T,4,Snow,304
2013-1-21,20,13,6,13,2,-4,80,61,42,30.38,30.28,30.21,10,10,9,28,20,36,T,3,Snow,288
2013-1-22,17,10,3,0,-2,-5,79,60,40,30.46,30.41,30.37,10,10,10,18,11,35,0.00,2,,280
2013-1-23,33,22,11,16,8,1,77,60,43,30.39,30.28,30.14,10,10,10,29,10,36,0.00,5,,258
2013-1-24,26,17,8,8,3,-2,69,55,40,30.65,30.50,30.36,10,10,10,22,12,26,0.00,1,,57
2013-1-25,34,26,17,22,16,3,84,64,44,30.32,30.16,30.06,10,7,1,21,10,25,0.02,5,Snow,182
2013-1-26,33,22,11,18,13,8,84,64,43,30.42,30.36,30.22,10,10,9,15,7,22,0.00,0,,28
2013-1-27,42,31,20,40,29,16,100,82,64,30.39,30.14,29.98,8,4,0,28,14,38,0.08,7,Fog-Rain,141
2013-1-28,56,49,42,56,50,41,100,95,89,29.99,29.94,29.88,6,2,0,23,15,30,0.05,8,Fog-Rain,185
2013-1-29,61,57,52,58,55,51,100,92,84,29.88,29.63,29.42,10,5,2,28,18,33,0.81,8,Rain-Thunderstorm,190
2013-1-30,54,39,23,50,39,16,100,87,74,29.77,29.43,29.30,10,8,1,36,23,44,0.20,8,Rain-Snow,224
2013-1-31,25,16,7,19,11,-2,88,75,62,30.28,29.98,29.78,10,9,2,33,24,39,T,7,Snow,279